EW9034 Weather Reports


Display with metric or nautical units.
time (UTC)temp
F
wind
direction
speed
MPH
gust
MPH
rain 1hr
in
rain 24hr
in
rain mn
in
humidity
%
barometer
mb
20260904003054 73 262 5.0 10.0 0.00 0.00 0.00 39 1003.0
20260904001552 74 236 8.0 14.0 0.00 0.00 0.00 36 1002.8
20260904000050 76 243 11.0 17.0 0.00 0.00 0.00 34 1002.5
20260903234549 77 255 14.0 21.0 0.00 0.00 0.00 34 1002.4
20260903233048 75 262 7.0 13.0 0.00 0.00 0.00 37 1002.3
20260903231551 77 249 11.0 16.0 0.00 0.00 0.00 34 1002.1
20260903230048 76 249 11.0 18.0 0.00 0.00 0.00 34 1001.9
20260903224545 76 257 9.0 17.0 0.00 0.00 0.00 36 1001.7
20260903223042 77 255 10.0 19.0 0.00 0.00 0.00 35 1001.6
20260903221547 77 232 11.0 19.0 0.00 0.00 0.00 34 1001.5
20260903220038 75 246 8.0 16.0 0.00 0.00 0.00 38 1001.4
20260903214537 75 241 11.0 17.0 0.00 0.00 0.00 37 1001.4
20260903213037 77 258 13.0 19.0 0.00 0.00 0.00 35 1001.2
20260903211535 77 302 12.0 19.0 0.00 0.00 0.00 35 1001.2
20260903210035 75 245 8.0 16.0 0.00 0.00 0.00 38 1001.2
20260903204533 75 267 9.0 14.0 0.00 0.00 0.00 37 1001.2
20260903203045 74 212 6.0 14.0 0.00 0.00 0.00 36 1001.0
20260903201531 75 281 5.0 18.0 0.00 0.00 0.00 39 1001.1
20260903200040 75 261 10.0 18.0 0.00 0.00 0.00 37 1001.0
20260903194538 76 239 11.0 17.0 0.00 0.00 0.00 36 1001.1
20260903193034 76 248 12.0 20.0 0.00 0.00 0.00 37 1001.1
20260903191528 75 228 9.0 20.0 0.00 0.00 0.00 38 1001.2
20260903190023 74 214 10.0 21.0 0.00 0.00 0.00 36 1001.1
20260903184521 74 222 8.0 28.0 0.00 0.00 0.00 38 1001.2
20260903183021 73 221 16.0 23.0 0.00 0.00 0.00 38 1001.3
20260903181518 72 250 16.0 23.0 0.00 0.00 0.00 40 1001.3
20260903180031 72 261 14.0 21.0 0.00 0.00 0.00 41 1001.3
20260903174515 73 267 12.0 22.0 0.00 0.00 0.00 42 1001.2
20260903173011 71 234 14.0 24.0 0.00 0.00 0.00 45 1001.2
20260903171511 68 242 9.0 15.0 0.00 0.00 0.00 50 1001.3
20260903170009 69 265 13.0 19.0 0.00 0.00 0.00 47 1001.2
20260903164507 68 206 9.0 19.0 0.00 0.00 0.00 47 1001.0
20260903163004 67 188 11.0 20.0 0.00 0.00 0.00 50 1000.9
20260903161504 67 229 11.0 20.0 0.00 0.00 0.00 52 1000.9
20260903160004 66 222 10.0 22.0 0.00 0.00 0.00 50 1001.0
20260903154559 65 160 10.0 17.0 0.00 0.00 0.00 52 1000.9
20260903153056 63 215 8.0 18.0 0.00 0.00 0.00 55 1000.8
20260903151554 62 217 10.0 19.0 0.00 0.00 0.00 56 1000.6
20260903150053 61 232 10.0 21.0 0.00 0.00 0.00 56 1000.4
20260903144548 61 198 11.0 19.0 0.00 0.00 0.00 57 1000.4
20260903143142 60 180 10.0 21.0 0.00 0.00 0.00 58 1000.5
20260903141539 59 215 10.0 15.0 0.00 0.00 0.00 58 1000.1
20260903140037 59 189 9.0 16.0 0.00 0.00 0.00 58 999.8
20260903134533 59 244 8.0 22.0 0.00 0.00 0.00 59 999.7
20260903133029 59 227 10.0 19.0 0.00 0.00 0.00 59 999.6
20260903131526 58 217 12.0 19.0 0.00 0.00 0.00 60 999.4
20260903130026 58 186 13.0 19.0 0.00 0.00 0.00 59 999.2
20260903124519 58 202 14.0 25.0 0.00 0.00 0.00 59 999.1
20260903123020 59 227 14.0 26.0 0.00 0.00 0.00 58 999.0
20260903121520 58 193 13.0 24.0 0.00 0.00 0.00 60 998.8
20260903120017 57 178 11.0 19.0 0.00 0.00 0.00 61 999.0
20260903114517 58 191 12.0 20.0 0.00 0.00 0.00 59 998.7
20260903113026 58 203 14.0 20.0 0.00 0.00 0.00 60 998.7
20260903111514 59 209 15.0 25.0 0.00 0.00 0.00 58 998.7
20260903110022 58 182 18.0 27.0 0.00 0.00 0.00 60 998.8
20260903104512 58 192 11.0 20.0 0.00 0.00 0.00 61 998.9
20260903103011 58 173 11.0 22.0 0.00 0.00 0.00 62 998.5
20260903101510 58 192 12.0 19.0 0.00 0.00 0.00 62 998.4
20260903100007 58 212 12.0 21.0 0.00 0.00 0.00 64 998.5
20260903094515 57 197 11.0 24.0 0.00 0.00 0.00 66 998.6
20260903093004 56 207 10.0 15.0 0.00 0.00 0.00 68 998.8
20260903091503 55 201 7.0 12.0 0.00 0.00 0.00 73 998.9
20260903090001 54 190 4.0 11.0 0.00 0.00 0.00 75 998.8
20260903084558 55 185 5.0 9.0 0.00 0.00 0.00 74 998.6
20260903083059 56 203 10.0 15.0 0.00 0.00 0.00 73 998.6
20260903081554 55 209 9.0 16.0 0.00 0.00 0.00 74 998.5
20260903080051 56 213 9.0 20.0 0.00 0.00 0.00 74 998.5
20260903074559 56 229 12.0 19.0 0.00 0.00 0.00 74 998.3
20260903073048 56 227 12.0 18.0 0.00 0.00 0.00 74 998.2
20260903071551 56 202 11.0 19.0 0.00 0.00 0.00 74 998.1
20260903070044 56 190 9.0 17.0 0.00 0.00 0.00 72 998.2
20260903064543 57 204 11.0 21.0 0.00 0.00 0.00 73 998.2
20260903063041 57 198 11.0 23.0 0.00 0.00 0.00 76 998.4
20260903061549 56 190 13.0 21.0 0.00 0.00 0.00 79 998.6
20260903060033 55 187 12.0 17.0 0.00 0.00 0.00 75 997.9
20260903054542 56 187 8.0 21.0 0.00 0.00 0.00 70 998.3
20260903053055 55 183 8.0 13.0 0.00 0.00 0.00 72 998.6
20260903051532 55 168 7.0 13.0 0.00 0.00 0.00 73 998.9
20260903050031 55 170 6.0 11.0 0.00 0.00 0.00 73 999.0
20260903044533 56 190 6.0 10.0 0.00 0.00 0.00 72 999.3
20260903043030 57 190 5.0 10.0 0.00 0.00 0.00 69 999.2
20260903041531 59 216 7.0 16.0 0.00 0.00 0.00 66 999.1
20260903040029 61 197 13.0 21.0 0.00 0.00 0.00 63 998.8
20260903034528 64 223 17.0 34.0 0.00 0.00 0.00 61 998.6
20260903033027 62 158 6.0 8.0 0.00 0.00 0.00 63 997.6
20260903031527 64 165 2.0 6.0 0.00 0.00 0.00 63 997.4
20260903030037 64 171 2.0 6.0 0.00 0.00 0.00 58 997.4
20260903024537 66 221 0.0 2.0 0.00 0.00 0.00 54 997.3
20260903023026 67 221 2.0 9.0 0.00 0.00 0.00 53 997.1
20260903021531 67 240 8.0 17.0 0.00 0.00 0.00 53 997.9
20260903020027 67 237 5.0 11.0 0.00 0.00 0.00 54 998.5
20260903014523 68 196 10.0 24.0 0.00 0.00 0.00 53 999.1
20260903013024 68 205 12.0 26.0 0.00 0.00 0.00 53 999.1
20260903011537 70 215 21.0 38.0 0.00 0.00 0.00 49 999.2
20260903010122 74 207 19.0 36.0 0.00 0.00 0.00 41 998.6
20260903004529 78 205 25.0 44.0 0.00 0.00 0.00 34 998.1